TimeCST,TemperatureF,Dew PointF,Humidity,Sea Level PressureIn,VisibilityMPH,Wind Direction,Wind SpeedMPH,Gust SpeedMPH,PrecipitationIn,Events,Conditions,WindDirDegrees,DateUTC
12:15 AM,31.1,24.8,77,30.21,10.0,NNW,16.1,-,N/A,,Scattered Clouds,340,2013-01-17 06:15:00
12:35 AM,30.6,24.4,78,30.20,10.0,NNW,15.0,23.0,N/A,,Scattered Clouds,340,2013-01-17 06:35:00
12:55 AM,29.8,24.3,80,30.21,10.0,NNW,11.5,-,N/A,,Clear,340,2013-01-17 06:55:00
1:15 AM,29.1,23.9,81,30.22,10.0,NNW,9.2,16.1,N/A,,Clear,340,2013-01-17 07:15:00
1:35 AM,28.4,23.5,82,30.24,10.0,NNW,11.5,-,N/A,,Clear,340,2013-01-17 07:35:00
1:55 AM,27.5,22.1,80,30.26,10.0,North,12.7,17.3,N/A,,Clear,350,2013-01-17 07:55:00
2:15 AM,27.0,21.2,79,30.26,10.0,North,10.4,16.1,N/A,,Clear,350,2013-01-17 08:15:00
2:35 AM,26.4,21.2,81,30.27,10.0,North,8.1,-,N/A,,Clear,350,2013-01-17 08:35:00
3:35 AM,24.4,20.3,84,30.29,10.0,NNW,11.5,-,N/A,,Clear,340,2013-01-17 09:35:00
3:55 AM,23.9,19.4,83,30.30,10.0,NNW,9.2,-,N/A,,Clear,340,2013-01-17 09:55:00
4:15 AM,23.2,18.0,80,30.30,10.0,North,6.9,-,N/A,,Clear,350,2013-01-17 10:15:00
4:35 AM,23.0,17.6,80,30.31,10.0,NNW,9.2,-,N/A,,Clear,340,2013-01-17 10:35:00
4:55 AM,22.1,17.6,83,30.33,10.0,NNW,9.2,-,N/A,,Clear,340,2013-01-17 10:55:00
5:15 AM,21.7,17.2,83,30.34,10.0,NNW,9.2,-,N/A,,Clear,340,2013-01-17 11:15:00
5:35 AM,21.2,16.5,82,30.35,10.0,North,6.9,-,N/A,,Clear,350,2013-01-17 11:35:00
5:55 AM,19.9,15.8,84,30.36,10.0,NNW,10.4,-,N/A,,Clear,330,2013-01-17 11:55:00
6:15 AM,19.2,14.9,83,30.38,10.0,NNW,6.9,-,N/A,,Clear,330,2013-01-17 12:15:00
6:35 AM,18.5,14.5,85,30.39,10.0,NNW,6.9,-,N/A,,Clear,330,2013-01-17 12:35:00
6:55 AM,18.0,13.6,83,30.39,10.0,NNW,3.5,-,N/A,,Clear,330,2013-01-17 12:55:00
7:15 AM,17.6,13.3,83,30.40,10.0,NW,4.6,-,N/A,,Clear,310,2013-01-17 13:15:00
7:35 AM,17.1,12.6,82,30.40,10.0,NW,5.8,-,N/A,,Clear,310,2013-01-17 13:35:00
7:55 AM,17.1,12.9,84,30.41,10.0,WNW,3.5,-,N/A,,Clear,290,2013-01-17 13:55:00
8:15 AM,18.3,13.1,80,30.42,10.0,West,6.9,-,N/A,,Clear,280,2013-01-17 14:15:00
8:35 AM,19.2,13.1,77,30.43,10.0,WNW,6.9,-,N/A,,Clear,300,2013-01-17 14:35:00
8:55 AM,20.1,12.6,73,30.46,10.0,WNW,10.4,-,N/A,,Clear,290,2013-01-17 14:55:00
9:15 AM,21.0,13.1,71,30.46,10.0,WNW,5.8,-,N/A,,Clear,300,2013-01-17 15:15:00
9:35 AM,21.9,12.7,68,30.46,10.0,WNW,5.8,-,N/A,,Clear,300,2013-01-17 15:35:00
9:55 AM,22.1,11.1,63,30.46,10.0,NW,6.9,-,N/A,,Clear,310,2013-01-17 15:55:00
10:15 AM,24.4,12.6,61,30.45,10.0,NW,3.5,-,N/A,,Clear,310,2013-01-17 16:15:00
10:35 AM,26.1,12.7,57,30.45,10.0,Calm,Calm,-,N/A,,Clear,0,2013-01-17 16:35:00
10:55 AM,27.1,12.7,55,30.46,10.0,WNW,5.8,-,N/A,,Clear,300,2013-01-17 16:55:00
11:15 AM,28.2,13.5,54,30.45,10.0,NNW,9.2,-,N/A,,Mostly Cloudy,330,2013-01-17 17:15:00
11:35 AM,27.9,13.6,55,30.46,10.0,NNW,10.4,-,N/A,,Overcast,330,2013-01-17 17:35:00
11:55 AM,28.2,14.9,57,30.46,10.0,NNW,9.2,-,N/A,,Overcast,330,2013-01-17 17:55:00
12:15 PM,28.9,15.3,57,30.44,10.0,NW,8.1,-,N/A,,Overcast,310,2013-01-17 18:15:00
12:35 PM,29.1,13.3,52,30.43,10.0,NNW,3.5,-,N/A,,Mostly Cloudy,330,2013-01-17 18:35:00
12:55 PM,30.9,13.1,48,30.43,10.0,NW,8.1,-,N/A,,Scattered Clouds,310,2013-01-17 18:55:00
1:15 PM,31.6,12.4,45,30.41,10.0,NW,10.4,-,N/A,,Clear,320,2013-01-17 19:15:00
1:35 PM,32.7,13.6,45,30.41,10.0,NW,9.2,-,N/A,,Clear,310,2013-01-17 19:35:00
1:55 PM,33.6,14.4,45,30.41,10.0,NW,6.9,-,N/A,,Clear,320,2013-01-17 19:55:00
2:15 PM,34.2,14.4,44,30.40,10.0,WNW,9.2,-,N/A,,Clear,300,2013-01-17 20:15:00
2:35 PM,35.6,15.6,44,30.40,10.0,WNW,6.9,-,N/A,,Clear,290,2013-01-17 20:35:00
2:55 PM,35.2,14.7,43,30.41,10.0,SW,5.8,-,N/A,,Clear,230,2013-01-17 20:55:00
3:15 PM,35.4,14.7,43,30.41,10.0,WSW,6.9,-,N/A,,Clear,240,2013-01-17 21:15:00
3:35 PM,35.6,16.0,45,30.40,10.0,WSW,5.8,-,N/A,,Clear,250,2013-01-17 21:35:00
3:55 PM,36.0,16.2,45,30.39,10.0,WSW,5.8,-,N/A,,Clear,240,2013-01-17 21:55:00
4:55 PM,34.0,19.0,54,30.42,10.0,West,4.6,-,N/A,,Clear,260,2013-01-17 22:55:00
5:35 PM,32.0,18.5,58,30.41,10.0,SW,4.6,-,N/A,,Clear,230,2013-01-17 23:35:00
7:15 PM,27.9,18.3,67,30.42,10.0,Calm,Calm,-,N/A,,Clear,0,2013-01-18 01:15:00
7:55 PM,27.5,18.5,69,30.41,10.0,Calm,Calm,-,N/A,,Clear,0,2013-01-18 01:55:00
8:15 PM,27.3,18.5,69,30.41,10.0,Calm,Calm,-,N/A,,Clear,0,2013-01-18 02:15:00
8:55 PM,26.2,18.9,74,30.39,10.0,Calm,Calm,-,N/A,,Clear,0,2013-01-18 02:55:00
9:15 PM,25.9,18.5,74,30.41,10.0,ESE,3.5,-,N/A,,Clear,110,2013-01-18 03:15:00
9:35 PM,25.9,18.9,75,30.40,10.0,ESE,3.5,-,N/A,,Clear,120,2013-01-18 03:35:00
9:55 PM,24.8,18.3,76,30.39,10.0,ESE,4.6,-,N/A,,Clear,120,2013-01-18 03:55:00
11:15 PM,24.8,17.6,74,30.38,10.0,ESE,4.6,-,N/A,,Clear,120,2013-01-18 05:15:00
11:35 PM,24.1,17.4,76,30.38,10.0,ESE,4.6,-,N/A,,Clear,110,2013-01-18 05:35:00
11:55 PM,25.0,17.6,74,30.37,10.0,SE,5.8,-,N/A,,Clear,140,2013-01-18 05:55:00